METEOR 2-17 DEB, 35373

Orbit data source: Space-Track

METEOR 2-17 DEB, 35373 is space debris in LEO originally from a launch on Sat, 30 Jan 1988 UTC launched from the Plesetsk Missile And Space Complex (PKMTR). Debris objects in space refer to the collection of defunct objects orbiting the Earth. Examples of debris include non-operational satellites, rocket bodies, and fragments generated from explosions, collisions, or faulty payload assembly.

Loading next visibility...
Identifier
35373, 1988-005AH
Orbit
LEO
Country
Flag of CISCIS
Related business
Manufacturer
Unknown
Mission
Spacecraft
Bus & Motor
Unknown
Mass
Unknown
Launch date (UTC)
1988-01-30 (38 years ago)
Launch vehicle
Unknown
Launch site
Plesetsk Missile And Space Complex (PKMTR)
Object type
Payload
Rocket body
Debris
Shape & HBR
Unknown
Radar Cross Section
Small (<0.1 m²)

Expand to show TLE details & history
Last TLE update: 2 days ago

TLE from 2 days ago
0 METEOR 2-17 DEB
1 35373U 88005AH  25259.92717949  .00001139  00000-0  74920-3 0  9992
2 35373  82.5244 119.8769 0029566 340.0841  19.9172 14.00918903554005
Epoch: 2025-09-16T22:15Z
TLE epoch observation values (Epoch: 2025-09-16T22:15:08.307Z)
Latitude
-0.00003°
Longitude
149.98182°
Altitude
873.338 km
Speed
7.426 km/s
True Right ascension
07h 59m 30s
True Declination
0° 00' 00"
Sunlit
Object was in daylight at epoch
Visualization orbit readout
Latitude
Unknown
Longitude
Unknown
Altitude
Unknown
Speed
Unknown
Apparent Right ascension
Unknown
Apparent Declination
Unknown
Sunlit
N/A
Visualization observer readout
Local Sidereal Time
14:41:14
Azimuth
Unknown
Elevation
Unknown
Doppler factor
Unknown
Orbital elements
Apogee altitude
909.227 km
Perigee altitude
866.262 km
Semi-major axis
7,265.881 km
Eccentricity
0.00296
Inclination
82.5244°
RAAN
119.8769°
Arg. of periapsis
340.0841°
True anomaly
20.03302°
Mean anomaly
19.9172°
Eccentric anomaly
19.97507°
Mean motion
3.50438 °/min
Orbital period
102.73 mins
BSTAR
0.0007492
Loading maneuver chart data...
Computing Atmospheric mass density...
Loading historical data...
Loading historical data...
Loading historical data...
Loading historical data...
Loading historical data...
Loading historical data...
Loading historical data...

Documentation

Showing up to 5 results
|